sat.trackr.live / text

‹ back to catalog

STARLINK-5819

NORAD 55780 · 2023-028AR

PAYLOAD ACTIVE UNKNOWN

§ Identity

Operator
Country
US
Launch date
2023-03-03
Launch site
AFWTR
Launch vehicle
Mass (kg)
RCS (m²)

Purposes: comms

External: N2YO · Heavens-Above · Gunter

§ Orbital elements

Epoch: 2026-09-20T14:30:09.395424Z

Period
96.11 min
Inclination
69.9983°
Eccentricity
0.0002798
Mean motion
14.98319678 rev/d
Perigee alt
570.1 km
Apogee alt
574.0 km
Semi-major
6,950.2 km
B*
3.8652e-5
RAAN
92.8390°
Arg perigee
266.1723°
Mean anomaly
93.9116°
Rev number
19,573

§ Raw data

STARLINK-58191 55780U 23028AR  26263.60427541  .00000368  00000+0  38652-4 0  99922 55780  69.9983  92.8390 0002798 266.1723  93.9116 14.98319678195735

JSON: /api/v1/satellites/55780 · /tle

For live sub-satellite position, see the globe view (requires WebGL).

§ Visibility from observer

Set your observer location to see the next 7 days of passes ≥ 10°. The values pass through the URL so the page stays shareable.

No JS? Fill the form by hand. The geolocation button needs JavaScript.